Theta_e
323 326 326 326 326 325 324 322 323 324 325 325 326 324 322 321 320 319 320 322 322 321 322 323 323 323 324 324 325 326 326 326 326 326 326 326 327 323 318 317 314 312 313 313 313 314 314 315 315 315 314 314 313 316 318 318 318 318 324 326 324 329 328 328 327 320 322 322 317 317 318 319 318 317 317 318 319 319 319 319 321 322 323 323 324 324 322 326
318 325 326 326 326 325 325 323 322 323 324 324 326 324 322 321 320 318 318 321 322 321 321 322 322 322 323 323 324 325 325 326 326 326 326 326 327 325 320 318 314 311 312 313 313 314 314 315 316 315 314 314 314 316 318 319 317 320 327 325 324 332 326 320 319 317 320 320 316 317 318 319 318 316 317 317 317 318 320 321 322 326 329 328 327 327 325 326
313 320 323 326 326 325 325 323 321 322 324 324 325 325 322 321 319 318 318 319 321 322 322 321 322 322 322 323 323 324 325 326 326 326 326 326 326 326 324 323 319 315 313 314 313 314 314 314 316 316 314 313 315 317 319 319 318 319 323 323 327 329 321 316 316 316 319 319 315 317 318 318 318 317 317 316 315 316 319 321 324 330 333 332 331 330 328 327
310 313 319 324 326 325 325 324 321 320 323 324 325 325 323 321 320 318 318 318 321 323 322 322 322 322 324 325 325 325 325 326 326 326 326 326 326 326 325 325 325 322 315 313 313 313 314 313 314 316 313 313 314 317 319 319 318 318 320 325 326 320 318 317 315 315 317 318 317 317 317 317 318 318 316 316 316 316 316 318 321 326 329 331 332 331 329 327
312 310 317 324 326 325 325 324 322 320 322 324 324 324 324 322 320 319 319 319 321 323 322 322 322 323 326 326 326 326 326 327 326 326 326 326 327 326 326 325 326 325 317 313 315 314 314 313 312 313 313 314 314 317 319 318 318 318 318 322 320 316 317 317 314 315 316 317 318 316 316 317 317 317 316 316 317 317 316 317 316 318 320 323 327 328 328 327
315 310 315 323 325 326 325 324 323 321 320 323 324 324 325 323 320 319 319 318 320 323 321 322 324 324 326 326 326 325 326 328 324 323 326 326 327 326 325 326 325 326 321 315 316 316 314 313 312 312 313 315 315 316 318 317 318 318 318 318 317 317 317 316 315 315 315 317 317 316 317 316 316 316 316 316 316 316 316 316 316 315 316 316 318 321 324 324
317 311 313 321 324 325 325 324 323 322 320 322 324 324 325 324 321 320 319 319 320 323 322 322 324 325 325 325 325 325 326 326 321 320 325 325 327 327 326 326 325 326 324 319 319 317 315 314 312 312 313 315 315 316 317 316 317 318 318 317 316 316 316 316 315 314 315 317 317 316 317 315 316 317 316 315 316 317 316 315 315 315 316 316 317 317 317 318
317 311 310 318 323 325 324 323 323 322 319 321 323 324 325 325 323 320 319 319 320 322 322 322 323 325 325 325 325 325 325 326 322 321 323 325 327 327 326 325 323 325 325 324 323 319 316 315 313 313 315 314 313 317 317 316 316 316 317 316 315 315 315 316 315 314 315 316 317 317 316 315 316 316 315 315 315 316 317 317 316 315 316 317 317 316 314 315
317 313 310 314 321 324 324 323 323 322 320 320 322 323 324 325 324 321 320 320 320 321 322 322 323 324 324 324 325 325 324 326 324 322 323 326 326 325 324 323 321 321 322 323 325 322 318 316 314 314 316 313 311 314 315 315 318 317 316 316 314 314 314 314 314 314 315 315 317 316 315 314 315 315 315 315 315 315 316 317 317 316 316 317 317 316 314 315
318 315 310 311 317 321 324 324 322 322 320 319 321 323 324 325 325 323 321 320 320 320 321 321 322 322 323 323 324 325 325 325 324 321 323 325 324 323 321 319 319 318 318 319 322 322 318 317 316 313 313 313 312 312 312 314 317 317 315 315 314 314 314 314 314 314 315 315 315 316 315 314 314 315 316 315 315 315 315 316 318 318 317 317 318 316 315 314
317 317 312 310 314 319 324 324 322 322 320 320 321 322 324 325 325 324 322 320 319 320 321 321 322 321 322 322 323 325 324 324 324 320 322 324 323 322 319 317 317 316 317 317 319 320 318 317 315 314 316 314 311 312 313 312 315 316 315 315 314 313 314 313 314 313 314 315 314 315 314 313 314 314 315 315 315 315 315 316 318 319 318 318 318 316 315 314
315 317 314 310 313 317 322 323 322 322 320 321 323 323 324 324 325 325 323 321 320 320 320 321 321 321 322 322 323 324 323 324 323 318 320 323 323 322 319 316 315 315 316 316 316 319 318 316 313 315 318 315 311 312 314 313 313 314 315 316 314 313 314 314 313 313 314 315 314 314 314 315 315 315 315 315 315 315 315 315 317 318 319 319 319 317 316 315
314 317 314 312 314 317 321 323 322 322 320 321 323 323 324 323 324 325 323 322 321 320 320 321 322 322 322 322 323 323 324 324 321 318 318 320 322 321 317 315 315 314 314 314 315 317 318 316 313 314 315 313 313 312 312 313 313 314 314 316 316 314 315 315 313 313 314 314 314 314 316 319 318 315 315 315 315 315 315 315 315 317 319 319 319 318 316 315
313 315 315 314 315 317 323 323 321 322 320 322 323 323 324 323 324 324 324 323 321 321 321 321 322 322 323 323 323 323 324 324 320 318 318 319 321 319 316 316 315 314 313 314 315 315 317 316 314 314 313 312 313 311 311 312 313 315 313 315 319 318 318 316 312 313 315 314 313 314 316 321 321 315 314 315 315 315 315 314 314 315 317 319 319 318 316 314
312 314 315 315 316 315 321 323 322 321 321 322 323 323 323 323 324 324 324 323 322 322 322 322 322 322 322 322 322 322 323 323 320 318 318 318 319 317 316 316 315 314 312 313 314 314 316 316 314 313 312 312 312 310 311 313 315 315 315 317 317 317 319 316 312 313 316 314 313 314 316 319 319 315 314 315 315 315 315 315 314 314 315 317 318 317 316 314
312 313 314 315 315 313 315 321 322 321 321 322 323 323 324 323 324 324 325 324 322 323 322 322 322 321 322 321 321 322 323 323 320 318 318 318 317 317 317 316 314 313 312 313 314 314 316 316 314 313 312 312 312 311 311 314 315 315 316 320 318 317 319 317 314 312 313 314 312 313 316 318 317 314 313 314 315 315 315 314 314 314 315 316 316 316 316 315
312 313 315 314 315 313 312 316 320 321 321 323 323 323 324 323 323 324 323 323 322 322 321 322 322 321 321 320 320 321 322 324 322 319 320 319 316 315 317 315 312 312 313 313 313 314 316 315 313 313 312 312 313 311 311 313 315 315 315 318 321 318 317 317 316 313 312 314 314 313 315 318 316 313 313 314 314 314 314 314 314 315 315 315 316 316 316 315
311 312 315 314 314 313 312 314 318 321 322 323 323 323 324 324 323 323 321 321 321 319 320 321 320 322 322 318 319 322 322 323 322 321 322 319 314 313 315 314 312 312 312 312 313 313 314 313 312 313 312 311 312 311 312 315 318 319 315 315 319 317 316 318 318 315 314 314 315 314 313 317 317 313 313 314 313 314 313 314 314 315 315 315 315 315 316 316
311 312 314 314 315 314 312 313 318 321 322 323 323 323 324 322 321 320 319 319 318 317 318 318 319 322 323 319 319 322 322 323 322 322 323 318 313 313 313 313 313 312 312 312 312 311 312 312 312 313 313 312 312 311 312 316 318 320 319 317 319 318 315 318 318 315 314 314 315 314 314 315 316 314 314 314 314 313 314 314 314 314 315 315 315 315 315 315
311 312 313 314 316 316 313 313 317 320 322 324 323 322 321 319 317 315 316 318 318 317 318 318 319 320 319 320 320 321 323 323 323 323 321 315 313 313 313 313 313 312 312 313 313 311 311 312 312 313 313 312 312 312 312 313 312 314 317 317 318 319 316 316 318 314 313 315 315 314 314 314 314 315 314 313 314 313 313 313 314 314 314 315 316 316 316 315
310 312 314 314 317 317 315 316 317 320 322 323 322 321 318 316 316 314 314 317 318 318 316 317 320 317 316 319 321 322 322 321 321 321 317 314 314 314 313 313 312 312 312 312 313 312 311 313 313 312 312 312 311 312 312 311 311 311 315 317 316 320 319 315 316 314 312 315 316 315 315 314 315 315 313 311 313 313 313 312 313 314 314 315 316 316 316 316
310 312 313 314 317 318 318 319 319 320 323 322 321 319 317 316 317 316 316 316 317 316 314 315 320 318 315 318 322 322 322 319 318 316 314 314 314 313 313 313 312 313 313 312 312 312 311 312 313 311 311 312 311 312 311 311 311 312 316 317 315 319 319 315 315 315 313 314 317 316 315 315 315 315 312 310 312 313 314 314 314 314 314 315 315 316 316 316
309 311 314 314 316 319 321 321 320 321 322 321 320 318 318 318 317 317 317 317 317 316 313 315 320 319 315 317 321 321 321 319 317 315 313 313 314 313 313 312 312 313 313 312 313 312 311 312 312 312 311 312 312 312 312 311 311 313 316 316 318 318 318 318 316 314 314 314 317 317 316 317 316 316 314 312 312 314 314 315 314 314 314 315 315 315 315 315
309 312 315 314 313 317 320 321 321 321 321 320 319 318 318 317 317 317 316 316 317 316 313 315 319 317 315 316 319 320 320 320 319 315 313 313 314 313 313 313 312 313 312 312 312 312 313 312 311 312 312 312 312 312 313 312 311 316 319 318 320 320 319 321 317 314 314 314 315 315 316 320 318 316 317 315 313 313 313 314 313 314 314 314 315 315 315 315
309 313 315 313 312 315 319 321 320 320 320 319 318 318 317 316 316 317 317 317 318 316 312 315 318 315 314 316 319 321 319 318 319 316 313 313 313 313 313 313 313 313 313 312 312 312 313 312 311 313 313 313 313 313 316 315 311 315 320 320 322 322 321 321 319 317 315 314 317 314 314 324 325 317 315 315 314 313 313 312 312 314 315 314 315 315 314 315
311 315 314 313 312 313 317 319 319 319 318 318 318 317 317 316 315 317 318 318 318 315 312 315 316 313 314 315 316 318 317 317 318 316 314 312 313 313 313 313 313 313 313 312 313 315 314 311 311 314 315 316 315 314 318 319 313 314 319 321 323 325 324 322 319 321 320 316 317 314 314 323 325 320 318 316 314 314 313 311 311 313 314 315 315 315 315 314
313 315 313 314 315 315 318 319 317 318 318 317 317 317 317 316 315 316 316 318 319 314 312 314 314 313 314 315 314 315 316 316 315 315 313 312 313 313 313 313 313 313 313 313 314 315 314 311 312 315 315 317 315 313 318 319 315 317 321 324 326 324 325 324 320 322 324 319 317 318 317 318 319 321 322 318 315 315 313 313 312 312 313 315 315 315 315 315
314 314 313 315 318 317 318 318 317 318 318 317 317 317 317 315 314 314 314 317 318 314 312 313 313 313 314 314 314 314 314 314 314 315 313 312 313 313 313 313 313 314 314 313 315 315 313 313 314 315 315 315 314 314 319 318 316 321 324 324 325 324 326 327 322 322 321 318 321 323 317 316 323 327 321 317 317 316 316 317 315 312 313 315 315 316 316 316
315 313 312 314 316 317 318 318 318 318 317 317 316 316 316 314 313 312 312 315 314 312 312 312 313 313 313 313 313 313 313 313 314 314 312 312 313 312 313 313 312 316 315 313 317 316 314 313 313 315 315 315 317 319 322 320 316 319 322 324 326 328 327 324 325 326 318 316 324 327 318 314 323 329 320 314 318 320 321 320 315 313 314 315 315 316 316 316
314 313 312 313 316 318 318 318 317 317 317 317 315 315 314 313 313 313 313 314 312 311 312 312 313 313 312 312 312 312 313 313 313 312 312 312 313 312 313 313 313 318 321 320 320 318 313 310 312 315 313 315 319 319 319 319 316 316 321 324 324 327 328 326 330 330 317 319 331 331 322 314 317 326 323 316 320 323 321 320 316 313 314 315 316 317 316 316
313 313 313 313 316 318 317 317 317 317 317 316 315 314 313 313 313 314 314 313 312 312 311 312 313 313 312 312 312 312 313 313 312 312 312 312 313 312 313 313 314 320 324 321 320 317 313 312 313 313 310 312 318 316 314 316 316 318 325 324 318 321 330 331 329 322 316 324 330 324 319 316 316 325 325 319 321 321 318 320 319 315 313 315 316 316 316 316
315 316 316 315 316 317 317 316 316 317 316 315 314 313 314 314 313 313 313 312 313 312 311 312 313 312 312 312 312 312 313 314 312 311 312 312 313 312 312 315 315 317 319 318 319 318 316 315 315 313 310 312 318 318 315 315 316 320 323 319 317 319 322 323 323 321 322 324 320 315 316 318 319 321 321 319 320 318 315 315 316 315 314 316 316 315 315 315
317 316 316 316 317 317 317 316 316 316 314 314 313 312 313 315 314 313 312 312 313 312 311 312 313 313 312 313 313 312 314 315 312 311 312 312 313 312 313 317 316 317 318 318 319 319 319 318 315 315 313 312 316 317 315 317 317 318 317 316 320 322 316 316 319 320 321 321 317 313 315 319 320 319 319 318 317 316 313 311 313 315 316 317 316 315 316 315
317 315 315 316 316 316 316 316 316 315 314 313 312 312 314 314 314 313 311 312 313 311 311 312 313 313 313 313 313 312 314 314 312 312 312 313 313 312 313 316 316 318 320 319 318 317 320 319 316 316 314 313 317 317 316 318 317 318 319 317 321 323 320 319 321 321 321 320 316 312 315 322 321 319 320 315 312 314 313 312 314 314 315 317 316 315 315 314
316 316 316 315 315 315 315 315 315 314 313 313 312 312 314 314 313 311 311 311 312 311 311 312 313 313 314 314 313 312 315 315 313 312 312 312 312 312 312 312 314 318 319 317 316 316 317 318 317 315 312 313 317 317 316 317 316 319 321 319 319 323 327 325 322 327 326 320 317 314 319 325 320 316 317 312 312 314 312 312 313 314 315 315 315 315 314 314
316 316 314 314 314 314 315 315 315 314 313 312 312 313 313 313 313 312 311 311 311 311 312 313 313 313 314 314 313 313 314 315 314 313 313 312 311 312 312 312 313 315 316 315 316 316 316 317 316 315 312 312 314 314 315 315 316 319 318 320 321 321 327 324 316 318 319 318 321 317 318 323 317 316 318 314 314 315 313 312 311 312 314 313 314 314 312 313
315 314 313 313 314 314 314 314 314 314 312 311 312 313 312 311 312 312 311 311 311 311 312 313 314 313 313 313 313 313 314 315 313 313 313 312 312 312 312 312 313 313 314 315 315 316 317 317 314 315 315 312 310 311 312 312 315 319 318 319 319 317 322 324 317 316 314 317 323 317 316 321 317 319 325 318 314 317 317 316 312 310 312 311 312 313 312 313
314 313 313 313 314 314 313 314 314 313 311 311 313 314 312 310 311 312 311 311 311 312 313 314 313 312 313 313 312 313 314 315 313 313 313 312 314 314 311 312 313 313 313 313 314 317 320 320 314 313 316 313 311 313 314 312 312 315 316 316 319 319 319 320 318 319 316 316 322 320 317 320 317 321 326 317 316 321 319 318 318 313 311 311 313 313 312 312
313 313 312 312 314 314 313 314 314 312 310 311 313 314 312 310 312 312 311 310 311 312 312 313 313 312 312 312 312 312 313 314 313 313 313 312 314 314 311 312 313 313 311 312 317 318 319 321 317 313 314 314 313 315 316 316 313 313 313 313 317 320 321 320 318 322 321 318 321 320 317 321 322 322 324 317 317 322 319 320 321 314 311 313 313 313 313 313
312 312 312 312 313 314 314 314 313 311 311 312 312 313 311 311 313 312 310 311 311 312 313 313 312 311 312 312 312 312 313 314 313 313 314 313 313 313 311 312 313 314 311 313 319 318 315 319 320 314 313 314 315 316 317 316 314 314 315 314 315 316 318 320 319 323 324 320 320 316 316 329 332 322 319 316 315 317 318 322 320 313 313 315 314 313 313 313
312 312 312 312 313 313 313 312 312 311 311 312 311 311 310 311 313 311 310 311 311 312 313 312 312 311 312 312 313 313 313 314 313 313 315 313 312 313 313 311 312 313 313 315 318 319 317 318 318 315 314 315 317 316 316 316 314 314 314 314 315 315 316 317 317 321 321 320 324 319 317 330 334 321 316 315 315 315 313 317 317 314 313 315 313 313 313 313
312 312 312 311 312 312 311 312 312 311 312 312 311 310 311 312 313 312 311 311 312 315 313 311 312 311 312 313 313 313 313 313 313 313 315 314 312 315 314 311 312 312 313 317 318 318 318 318 317 316 315 316 317 314 310 312 316 317 315 314 314 314 316 315 316 319 317 315 321 320 315 321 329 327 322 317 314 311 309 312 314 313 313 313 313 313 312 313
312 312 312 311 311 311 311 312 312 311 312 311 310 311 313 313 313 313 313 311 313 316 314 312 312 311 312 313 313 314 313 313 314 313 314 315 313 314 313 311 313 313 313 318 318 316 317 318 318 316 315 317 320 317 311 311 315 316 315 315 314 314 319 322 322 322 318 316 317 315 313 317 328 332 320 311 309 309 309 311 311 311 312 312 312 312 312 313
311 311 311 311 311 310 311 312 312 311 311 310 311 314 314 313 313 313 313 313 314 317 314 312 313 312 313 314 313 314 313 313 314 314 315 317 313 312 313 311 313 314 313 315 316 315 317 318 317 318 317 318 321 320 315 314 314 316 317 316 314 314 317 320 320 318 318 321 319 315 314 317 325 325 314 310 314 312 309 310 310 311 312 311 311 311 311 313
312 311 311 311 310 310 310 311 311 310 311 311 313 316 315 314 313 312 313 313 315 317 316 313 314 315 315 315 314 313 313 314 316 315 316 317 314 312 312 312 313 313 312 313 312 314 320 320 317 318 318 317 318 318 317 316 314 316 319 317 316 316 315 317 319 316 317 322 319 316 314 314 318 318 313 315 319 315 312 311 311 313 312 311 311 310 311 312
312 312 311 310 310 310 310 311 310 309 310 311 313 315 316 315 314 311 312 313 314 317 319 316 314 316 315 314 314 313 313 316 319 316 315 317 318 314 312 312 312 311 312 313 311 314 321 320 316 316 317 315 316 317 318 318 315 315 317 317 317 317 315 319 323 319 318 321 318 315 315 314 315 315 313 316 318 318 316 311 310 313 312 312 310 309 310 311
311 311 311 311 310 310 310 311 311 309 309 311 312 314 315 315 315 312 312 314 313 315 318 316 314 316 315 314 315 314 312 316 318 316 316 318 318 314 311 311 311 311 312 312 311 316 321 318 315 316 315 315 319 320 318 317 315 315 316 316 316 317 317 318 319 317 319 320 316 315 315 314 314 314 315 317 319 321 317 309 309 313 312 312 311 310 310 310
310 311 311 311 311 311 310 310 311 310 309 310 311 313 314 315 314 313 313 314 313 314 317 316 315 316 315 314 315 314 313 315 316 316 317 317 316 315 314 312 310 310 312 311 312 318 320 315 315 315 314 316 322 322 317 316 316 315 316 316 316 317 317 317 315 316 318 317 313 314 317 316 314 314 316 317 315 316 315 311 311 312 311 312 311 310 311 311
309 311 310 310 311 311 310 310 310 310 309 310 312 313 314 315 314 314 316 315 313 315 317 316 315 316 316 315 315 314 313 314 315 315 315 315 316 317 317 315 311 309 311 313 314 315 315 315 315 314 312 315 321 322 318 317 317 316 316 316 315 316 316 315 315 315 315 315 314 314 317 316 314 314 315 314 312 312 312 311 311 312 311 312 312 311 311 311
308 309 309 310 310 310 309 310 310 310 309 310 312 312 312 314 314 314 315 314 314 315 315 315 316 316 316 316 315 315 313 314 315 315 314 314 315 316 317 317 315 311 312 314 314 311 312 317 317 314 313 314 319 322 319 317 318 316 316 316 315 316 316 315 314 314 314 315 314 314 316 315 312 312 313 311 311 311 311 311 312 312 312 313 312 312 312 312
306 307 308 309 310 310 310 310 310 310 309 310 312 312 312 312 313 313 313 312 312 315 315 315 316 315 315 316 317 316 314 314 316 314 312 314 314 314 315 314 314 314 314 315 315 313 314 317 316 315 315 315 317 320 319 317 317 316 317 316 315 315 315 314 314 314 313 314 314 315 315 314 312 313 312 311 310 309 309 311 312 312 313 313 313 313 313 313
305 306 308 309 310 310 309 310 311 310 309 310 310 311 311 312 312 313 313 311 310 312 313 314 315 315 315 316 316 315 312 313 314 312 311 313 312 311 312 311 310 314 316 315 316 315 315 317 317 316 316 316 316 319 319 318 317 317 317 315 313 313 314 313 314 314 314 314 314 314 313 312 314 316 315 314 314 311 310 311 312 313 312 312 313 313 313 313
Wind_Speed
39 39 45 45 43 42 40 40 42 44 43 39 38 36 35 35 35 37 37 36 34 33 32 32 32 31 31 30 28 24 21 20 19 18 19 21 20 22 21 15 13 9 7 11 5 4 10 13 13 6 4 6 5 8 9 8 8 5 3 2 3 3 4 5 5 5 6 5 9 15 17 14 7 10 15 13 15 17 12 11 12 9 8 8 7 12 21 24
42 37 41 46 45 42 40 41 42 44 45 43 40 38 37 36 37 38 38 37 35 34 34 33 32 31 30 29 29 25 20 19 18 19 18 19 19 20 22 18 14 11 9 10 8 8 9 11 16 11 2 4 6 7 8 8 8 5 3 3 5 4 4 2 3 6 8 8 15 17 16 16 12 16 18 9 11 17 12 10 14 14 13 12 14 18 20 23
44 42 40 46 48 43 42 41 42 43 45 45 42 40 39 37 38 39 39 39 36 35 34 34 32 30 28 28 28 25 21 19 18 21 19 15 18 20 24 23 21 18 11 10 10 10 10 9 13 13 4 5 7 8 8 7 7 7 4 3 6 6 5 5 4 6 10 13 17 17 16 15 14 18 16 10 12 13 11 12 14 17 21 20 20 21 21 23
42 46 42 44 49 46 44 42 41 43 45 46 44 41 42 39 39 39 39 39 37 36 34 32 31 29 26 24 24 22 17 14 17 23 20 14 17 20 24 25 25 24 16 10 9 10 10 8 9 10 6 6 8 9 8 8 6 5 5 4 5 4 4 4 3 4 10 20 23 20 15 12 16 18 15 15 11 5 13 20 17 19 24 25 24 23 22 23
39 46 44 42 50 49 45 44 40 42 45 47 46 43 43 42 40 40 39 40 38 36 34 33 31 29 26 22 20 18 13 6 10 22 21 15 18 21 23 24 25 24 21 14 8 9 9 5 8 8 4 5 5 5 6 12 10 3 5 10 6 1 1 3 2 3 9 21 22 20 12 11 18 17 17 19 10 7 17 21 18 20 23 24 24 24 23 24
38 44 45 41 49 52 46 45 42 41 44 46 47 44 43 43 42 41 40 40 39 37 36 34 32 30 26 23 19 16 15 5 3 15 20 18 19 21 21 22 25 25 25 21 15 14 8 3 7 4 2 2 3 2 4 9 12 4 4 12 9 5 4 3 2 1 8 19 19 18 14 15 16 11 19 21 12 12 18 20 18 18 20 21 22 23 24 23
37 41 47 41 44 54 49 46 44 41 44 46 47 46 43 43 43 42 40 40 41 38 37 36 33 30 26 23 19 15 18 11 3 8 14 19 20 20 20 21 25 26 28 28 23 19 14 7 7 4 2 2 4 2 7 9 9 9 4 6 7 6 7 5 4 1 7 18 18 18 16 17 15 8 15 18 13 12 15 19 19 18 19 21 23 22 22 21
36 40 49 43 39 52 53 47 46 43 43 45 47 48 45 43 43 43 42 41 42 40 37 37 34 31 26 22 19 14 18 17 7 3 7 17 21 20 21 20 21 23 26 29 29 25 20 14 7 5 3 4 4 2 8 12 6 8 5 3 4 4 5 7 7 2 6 14 14 16 14 14 14 7 12 15 12 12 13 16 19 21 23 23 23 22 21 20
36 38 48 48 38 47 54 49 47 45 43 44 45 47 46 44 43 42 43 42 43 42 38 37 34 32 26 21 18 12 17 21 12 6 6 16 22 21 20 18 17 18 20 24 29 29 23 19 13 6 2 7 8 4 6 8 3 4 7 5 5 4 4 5 7 5 5 8 13 13 7 9 11 5 9 16 14 13 12 12 17 24 26 25 23 22 21 20
37 38 45 52 43 42 53 51 48 47 44 44 44 46 47 45 43 42 43 43 42 42 40 37 34 32 28 24 18 9 14 20 14 9 11 18 21 21 18 15 15 14 15 17 23 30 24 19 18 10 2 8 10 9 9 6 5 8 10 7 6 5 4 4 6 7 5 5 11 10 5 6 9 4 6 16 17 14 13 11 16 23 26 25 23 22 21 19
38 39 43 51 47 42 50 53 48 47 45 44 44 45 47 45 43 42 43 44 42 41 39 36 33 30 29 28 20 10 12 17 15 12 15 20 21 20 19 16 14 12 13 13 14 25 25 19 22 15 3 5 9 12 11 8 8 12 13 7 4 5 4 5 5 7 6 3 7 8 4 2 4 4 6 15 21 17 15 15 17 21 23 24 24 23 22 19
38 39 42 48 47 43 48 53 49 47 46 44 44 44 46 45 44 43 43 44 42 40 37 34 32 29 28 28 25 19 14 15 17 16 17 21 22 21 20 16 13 10 9 11 8 14 23 21 20 19 8 3 9 9 7 9 13 11 14 6 1 2 1 6 5 7 7 3 7 8 3 2 2 8 10 14 23 21 19 19 19 21 22 23 24 23 22 20
39 39 42 46 46 43 47 53 49 47 47 45 44 44 44 46 45 43 42 43 42 40 36 32 29 29 27 21 23 26 18 15 19 18 18 19 23 25 21 17 13 9 6 8 8 6 18 22 19 22 11 4 8 10 11 15 15 9 9 4 2 1 3 7 7 7 6 4 10 8 1 6 6 15 16 13 22 26 22 22 22 21 22 23 23 24 23 21
41 41 43 46 46 44 47 53 50 47 48 45 45 45 43 44 44 43 42 42 40 38 35 31 27 28 27 16 16 27 23 17 19 20 19 17 26 28 23 20 15 13 10 10 10 5 12 22 19 21 13 5 9 17 15 13 9 5 4 3 4 2 4 6 6 9 6 3 9 8 2 6 6 13 17 17 23 27 25 24 24 22 23 24 23 23 23 23
43 42 43 45 48 48 47 49 49 48 48 47 47 45 44 44 43 43 42 41 40 37 33 31 29 26 21 13 12 21 23 20 18 20 19 17 26 31 26 23 17 16 14 15 15 5 13 21 18 19 12 10 12 15 8 4 4 2 4 3 2 4 4 4 5 10 6 3 7 6 2 6 7 8 10 19 25 25 25 25 25 24 24 24 24 24 23 23
44 43 44 47 50 52 50 46 47 49 48 48 48 44 45 45 41 39 39 41 38 35 34 30 31 26 14 10 13 17 24 25 21 20 19 16 22 29 27 22 20 20 18 20 15 7 18 22 17 18 12 11 9 6 4 3 3 3 3 4 3 4 3 3 3 8 5 3 4 3 2 3 5 4 6 19 26 25 23 23 25 25 24 25 24 24 24 23
46 44 45 49 51 54 55 47 45 50 48 48 48 45 47 45 42 39 37 39 38 35 35 31 33 27 10 8 14 19 27 29 25 23 21 18 18 23 27 25 24 24 22 24 18 14 22 20 13 12 11 9 6 4 5 4 4 4 1 3 4 4 5 2 2 6 5 4 4 3 2 5 6 2 7 15 21 22 22 21 23 24 25 26 25 25 25 25
48 47 46 50 52 54 56 50 46 49 49 50 49 47 48 45 42 42 38 38 38 35 29 28 30 20 9 16 21 23 30 29 28 27 22 20 18 20 27 27 26 26 22 22 21 24 24 17 12 7 7 8 7 6 5 5 5 4 3 3 3 4 5 5 3 5 8 4 5 6 3 8 8 5 8 12 15 18 20 20 22 23 24 25 26 28 27 27
49 49 47 48 51 55 58 53 48 49 52 51 49 49 49 44 39 39 41 41 37 24 14 26 33 12 5 22 28 25 29 29 28 28 24 22 21 18 22 25 27 28 21 13 14 22 21 13 12 8 6 9 9 7 6 8 6 5 6 5 4 5 4 5 4 5 10 5 5 8 7 10 10 7 8 13 15 16 18 18 19 21 23 25 26 28 29 30
53 50 49 48 50 57 61 58 51 52 56 54 53 52 44 38 26 22 38 44 43 25 10 35 45 11 4 21 32 26 25 26 28 29 26 24 25 21 22 24 26 23 15 8 8 19 20 9 7 9 9 10 9 7 8 12 7 4 4 5 6 6 3 3 3 3 6 5 5 8 8 9 9 7 9 15 14 14 17 17 18 20 22 27 28 28 29 30
56 51 50 48 51 59 63 61 55 56 59 57 60 51 39 36 17 19 38 34 41 32 7 31 47 11 6 20 35 33 27 23 26 30 25 25 27 22 21 21 17 11 10 14 12 14 17 8 7 10 9 10 10 8 10 12 10 7 4 4 6 5 4 3 2 2 2 3 4 5 6 8 9 7 10 12 10 13 20 20 21 24 23 26 28 29 29 28
57 52 52 50 53 61 63 60 58 61 58 58 60 44 39 39 20 33 43 17 27 29 1 23 44 13 3 20 36 39 31 19 20 27 25 26 28 20 19 17 10 7 9 14 11 8 10 7 9 13 12 11 9 9 11 13 10 7 4 3 5 4 3 2 2 1 1 2 3 2 4 9 9 8 9 10 12 18 27 26 26 29 28 28 29 29 29 28
58 55 55 52 53 57 61 60 59 63 60 60 58 40 38 33 16 35 40 12 15 20 2 23 42 22 12 24 35 40 34 21 20 27 26 28 28 24 20 14 9 10 8 8 9 7 6 6 11 17 16 12 9 8 10 11 9 6 3 2 3 4 4 1 2 1 1 2 2 2 2 6 7 6 6 12 20 21 25 28 28 30 31 31 31 31 30 30
59 58 57 56 55 53 57 60 60 62 62 61 52 41 39 24 13 34 30 11 8 11 6 25 37 28 22 26 35 41 35 28 30 31 31 31 28 23 19 16 12 9 9 10 11 9 5 8 16 15 13 13 10 7 9 9 7 5 4 3 3 4 4 2 3 2 2 2 2 4 3 5 5 6 6 11 18 17 18 24 26 29 31 30 31 33 33 33
62 62 58 59 59 57 56 58 60 60 60 56 44 42 41 20 18 37 23 9 4 7 7 20 26 23 24 26 32 36 26 23 33 36 36 37 30 20 15 17 14 7 10 13 11 8 6 13 20 12 8 12 11 8 7 8 7 6 4 6 6 6 3 4 6 4 3 2 2 3 1 6 5 6 9 8 8 10 13 18 24 31 32 31 32 33 34 35
65 64 60 62 64 63 57 53 58 58 53 51 42 42 42 24 24 35 17 5 3 5 8 19 19 18 25 27 29 29 15 13 28 35 36 37 31 20 12 12 10 7 12 11 6 4 2 8 15 12 9 11 10 8 7 8 7 6 5 6 6 6 6 7 7 4 3 3 3 3 5 5 5 4 8 7 5 9 11 12 19 29 32 33 36 35 34 34
68 65 63 65 66 67 60 51 55 57 50 47 45 42 38 27 27 29 11 3 5 7 10 16 15 19 25 28 33 23 7 12 21 25 35 37 29 20 12 9 6 7 11 8 4 3 3 6 9 12 11 9 9 8 6 7 7 5 4 4 7 8 8 8 7 4 3 3 2 3 4 2 4 6 7 5 6 9 8 8 13 22 29 33 36 36 35 34
70 68 67 67 67 69 65 56 57 59 53 49 48 44 38 32 29 21 7 0 6 9 10 11 14 22 25 32 37 16 10 25 18 19 39 38 28 17 9 9 8 8 11 9 6 3 4 9 10 13 11 6 8 8 8 8 5 5 4 5 7 7 8 7 6 3 1 2 2 5 2 2 5 6 6 2 5 6 8 9 10 18 29 33 35 37 36 35
70 70 70 70 68 66 61 59 60 56 51 50 48 42 39 36 25 11 1 4 5 5 10 14 15 19 21 27 27 11 16 25 12 20 40 36 28 15 5 11 10 7 6 6 7 3 2 9 11 12 10 7 8 7 8 10 5 5 3 4 4 4 5 5 5 4 3 2 4 6 3 2 5 6 3 1 2 5 7 7 9 17 28 32 35 37 37 37
69 70 73 72 69 63 54 54 56 48 47 52 45 39 40 32 15 4 4 5 5 4 11 15 15 19 22 17 13 9 12 9 8 23 31 28 27 15 7 14 11 6 3 3 4 2 1 3 4 5 5 6 8 4 3 7 7 6 5 5 6 5 4 4 3 4 3 2 6 7 5 4 3 6 4 3 4 6 7 6 7 14 22 29 34 37 37 36
68 69 75 77 72 64 54 51 51 48 51 53 43 40 37 20 5 3 6 7 6 5 9 11 12 17 21 16 11 11 8 4 12 22 17 15 16 10 8 11 8 5 3 3 2 3 4 3 1 1 1 3 8 5 3 3 8 7 4 4 4 3 4 4 4 2 2 5 6 5 3 5 4 5 5 5 6 5 6 7 7 10 17 24 29 33 33 32
71 72 77 79 70 63 59 55 53 53 55 52 47 41 26 8 3 4 5 9 8 6 9 13 14 16 20 19 13 11 8 5 11 16 13 10 9 9 9 7 7 7 5 5 3 2 3 0 1 1 1 2 6 5 3 2 4 5 4 6 5 1 2 1 2 1 2 5 4 3 2 3 5 7 7 8 10 8 8 9 9 10 14 18 19 22 24 23
73 71 70 70 63 58 57 55 55 56 55 54 49 34 12 4 7 6 5 8 7 10 13 15 18 18 19 17 11 9 7 6 10 11 11 9 7 9 7 5 8 7 5 6 5 3 0 4 2 1 1 3 4 5 4 2 2 4 5 6 5 3 3 2 3 1 3 4 4 3 2 3 3 6 10 12 15 17 13 9 8 9 11 13 14 15 17 18
68 67 64 60 56 55 57 57 59 58 56 54 41 21 8 7 8 8 8 7 7 12 12 13 17 17 16 14 10 10 7 4 9 11 9 8 7 9 8 8 9 5 5 5 4 6 5 2 3 3 1 3 4 4 6 7 5 4 5 6 5 5 4 4 3 2 3 3 3 3 2 3 3 4 8 11 15 19 18 14 12 11 12 12 13 14 15 16
66 67 63 53 49 52 55 58 61 60 55 44 23 10 11 9 7 9 8 5 7 10 12 15 17 15 13 9 8 11 6 3 8 9 9 10 10 11 11 10 9 6 7 7 4 5 6 2 3 2 1 3 4 3 3 8 6 4 3 5 4 5 5 3 3 5 4 1 1 2 2 5 4 6 9 8 9 13 14 13 12 14 14 13 15 16 16 15
66 61 54 47 48 51 55 60 63 60 52 32 11 8 11 8 7 9 7 7 10 13 16 16 13 12 9 5 7 12 6 4 8 7 6 9 9 11 11 9 10 9 9 9 3 3 6 1 5 3 2 1 2 2 1 4 4 2 3 4 5 4 6 5 2 1 4 2 3 2 3 5 3 6 10 7 6 8 8 8 11 14 14 14 17 19 17 16
61 51 46 46 52 53 56 62 62 58 46 24 9 11 9 7 7 7 6 10 14 17 18 13 9 11 12 7 10 14 8 7 10 8 6 7 6 11 12 9 11 12 9 8 3 2 6 1 4 2 1 2 2 1 2 2 3 4 4 6 3 2 4 4 2 1 2 2 3 2 4 4 2 3 7 5 5 8 7 8 10 13 13 16 21 22 21 19
54 46 43 46 55 57 58 61 59 53 35 15 11 13 8 5 4 7 10 13 16 17 14 10 8 9 12 12 12 16 14 10 11 8 8 8 5 10 15 10 10 12 10 9 5 2 5 3 3 1 1 3 3 2 1 3 1 2 3 4 4 2 2 2 3 2 2 3 4 3 4 4 3 4 5 4 6 7 7 8 8 10 13 18 21 21 20 20
50 39 31 45 58 58 62 62 55 43 21 9 13 11 7 5 3 10 21 19 15 15 11 9 9 7 10 11 11 14 14 12 12 8 7 8 5 8 17 11 7 12 13 10 6 3 4 4 1 2 1 1 2 1 5 2 3 3 1 1 2 2 4 3 3 4 3 4 4 3 2 3 5 7 5 7 9 8 8 7 7 11 16 19 18 16 15 17
45 25 19 47 59 55 64 60 43 27 12 11 14 7 8 8 4 15 32 27 12 8 8 9 11 10 9 9 11 12 10 8 11 8 4 7 4 5 14 13 8 11 12 8 5 4 3 4 3 1 2 1 2 2 6 7 4 2 3 4 2 1 2 2 2 3 4 4 4 2 3 5 6 5 8 11 11 9 8 6 7 13 17 16 14 12 11 14
39 13 16 51 57 54 62 45 22 15 9 12 11 5 8 7 3 14 30 31 14 3 6 10 11 11 10 10 11 11 9 7 10 8 3 7 7 3 9 13 11 11 9 5 4 4 2 3 5 3 1 3 4 3 4 5 5 5 6 8 8 4 5 4 5 2 2 3 4 4 4 7 6 5 8 10 9 8 9 8 8 12 12 10 9 9 10 11
27 6 24 55 57 59 53 24 11 12 8 9 7 3 7 6 6 11 18 25 15 2 6 9 8 10 10 10 11 10 9 8 10 10 4 7 9 4 9 17 19 17 11 4 3 4 4 5 5 2 3 4 5 5 3 2 1 2 4 5 7 6 6 7 7 3 2 2 2 3 4 8 6 5 7 8 7 8 10 9 8 9 8 8 8 7 8 9
17 15 36 54 57 60 41 11 9 9 3 7 6 2 4 5 8 11 11 15 11 4 7 7 8 11 9 9 12 13 11 8 10 11 5 5 7 5 12 24 25 19 11 5 4 5 5 5 4 2 1 3 5 5 3 1 0 3 5 2 3 4 3 5 5 4 4 4 3 3 6 8 6 4 4 5 4 5 8 8 8 8 7 7 8 7 7 7
23 31 39 47 54 51 26 7 13 11 5 10 9 4 3 3 7 12 11 10 7 6 8 7 9 10 7 9 13 15 15 9 7 9 4 5 7 6 15 30 28 17 11 10 10 8 4 2 4 5 2 3 4 4 4 3 2 2 3 2 3 3 3 3 2 4 2 5 6 5 8 7 4 3 2 2 2 3 8 8 7 9 9 8 9 8 7 8
25 24 27 40 52 41 14 2 11 11 7 11 10 6 4 3 5 12 14 9 4 5 6 6 9 7 6 9 9 11 14 7 5 7 4 4 5 1 11 30 29 18 13 17 19 14 6 4 5 6 6 6 6 5 5 4 3 2 3 5 6 6 6 4 3 4 4 5 6 7 9 5 3 1 2 1 4 5 9 10 9 12 14 12 10 9 9 10
16 9 12 23 33 29 10 1 7 10 9 10 8 5 6 5 3 8 14 9 3 6 6 5 9 9 8 12 9 9 12 3 4 7 6 6 4 3 6 22 23 17 16 21 25 16 4 3 7 9 11 11 7 5 6 10 8 8 8 8 8 7 8 6 4 4 5 3 4 12 14 8 5 2 2 3 6 5 7 11 12 15 18 15 12 10 10 10
12 8 12 14 15 16 8 3 7 11 12 13 8 5 8 10 6 5 7 5 5 10 6 3 9 10 11 16 12 11 12 4 5 9 7 5 3 2 4 10 8 11 15 20 23 14 4 4 9 10 10 7 6 6 9 13 14 14 11 10 10 9 9 8 7 8 6 5 8 14 12 10 6 5 6 8 7 6 7 12 16 18 19 16 12 11 11 10
10 11 20 21 14 12 12 12 14 15 16 15 8 7 9 10 10 9 4 2 7 10 5 3 11 14 16 18 12 10 11 6 5 9 6 4 4 4 4 4 4 4 8 11 13 8 4 7 8 7 6 3 5 8 11 12 12 11 12 12 12 11 12 13 14 12 8 8 15 11 7 12 9 8 11 11 9 11 13 15 16 15 15 15 13 14 13 10
7 10 18 20 9 5 11 12 14 16 16 12 7 9 14 13 13 9 3 4 7 5 5 8 12 13 15 16 12 11 13 10 7 6 4 6 7 5 3 3 3 3 5 6 5 3 3 5 3 6 6 2 3 7 9 11 9 8 11 13 12 13 16 18 19 19 16 16 18 9 8 17 13 10 11 13 18 20 15 12 12 12 14 16 15 15 13 10
6 7 12 14 5 5 10 10 9 12 11 10 7 7 13 16 16 9 4 9 11 5 5 13 14 11 12 14 13 12 16 16 12 9 8 8 6 3 3 4 2 3 5 4 2 2 2 3 1 6 5 3 5 6 6 8 9 8 9 11 13 15 18 19 20 17 14 15 17 9 10 18 11 8 10 14 19 17 9 9 13 15 17 17 16 15 12 12
9 4 8 10 4 7 13 9 10 11 8 10 8 7 11 15 17 13 5 6 12 10 8 13 13 9 8 11 12 12 15 14 14 18 20 19 16 11 7 6 8 7 4 5 4 2 2 2 1 5 5 5 6 7 5 6 6 5 7 12 17 18 17 17 15 11 10 14 15 9 12 15 4 7 10 11 11 11 10 15 19 20 20 19 18 17 15 16
10 6 11 13 4 5 13 10 10 11 10 12 11 8 10 11 11 12 6 1 5 10 14 17 15 9 7 9 11 14 15 14 19 27 29 27 24 17 12 15 19 15 8 6 5 4 6 6 3 6 6 6 5 7 8 8 5 5 11 16 20 18 14 12 9 10 14 15 12 11 15 12 3 5 8 7 8 10 15 20 23 23 22 21 20 19 19 19
Wind_Direction
221 217 219 221 216 213 214 212 211 214 214 211 208 206 207 207 207 207 209 211 212 213 210 209 209 210 210 208 206 206 207 211 213 213 217 214 203 184 176 170 157 149 180 186 165 158 190 192 173 162 230 216 240 234 215 207 193 174 141 138 210 210 211 209 224 198 157 161 178 184 177 159 143 143 132 131 145 136 138 140 134 147 146 148 160 167 172 176
226 220 218 219 216 212 213 212 210 212 214 213 210 207 207 207 207 207 207 209 211 213 213 212 211 212 212 210 210 211 214 216 221 220 217 218 213 195 183 177 168 156 151 168 173 168 172 189 195 197 229 245 239 221 213 200 188 185 135 161 214 208 210 270 276 182 154 165 174 179 183 172 165 155 145 138 143 139 129 126 136 136 134 143 152 160 171 178
228 226 224 218 216 213 212 212 210 212 214 214 212 209 208 208 207 207 207 208 209 211 212 213 211 211 211 210 210 215 222 222 232 227 214 217 218 204 192 188 187 184 168 149 144 144 145 160 194 204 217 267 244 217 206 188 193 207 161 176 232 233 253 325 344 206 190 169 161 170 182 181 174 162 157 156 152 152 152 150 146 141 145 152 159 167 174 180
230 227 228 220 216 215 211 209 210 211 214 214 213 211 209 208 208 207 209 209 209 208 208 208 206 203 203 203 204 211 217 223 238 228 214 220 226 212 201 198 196 199 195 164 141 128 125 139 168 191 220 268 246 219 208 187 192 203 170 193 227 231 265 294 342 287 209 172 164 169 169 180 183 174 170 156 147 187 185 178 179 169 165 164 166 174 180 185
234 226 226 223 215 213 210 207 208 210 213 215 213 212 210 208 208 208 209 209 209 208 206 204 202 199 198 195 194 197 199 217 238 224 220 221 224 215 204 203 202 203 195 179 185 156 125 129 150 164 209 267 244 212 216 199 195 210 212 219 228 211 227 259 304 350 190 170 163 167 164 176 177 178 182 168 165 214 196 194 203 195 185 180 178 180 184 190
238 228 223 223 214 210 209 208 209 209 212 214 213 213 212 210 208 208 209 208 208 209 207 204 199 197 197 195 195 191 193 201 189 209 217 212 213 210 204 206 205 207 198 193 209 192 176 168 133 139 192 274 269 267 270 220 202 223 256 225 232 244 231 248 256 6 176 167 160 169 170 162 162 180 191 184 193 206 202 205 208 206 204 198 191 187 189 193
238 232 223 223 217 210 208 208 209 208 210 212 213 213 212 211 208 208 209 208 208 209 207 204 199 197 196 195 197 195 201 212 164 186 207 204 207 207 204 207 205 208 203 200 206 197 204 199 115 78 18 304 278 273 285 276 226 215 263 234 219 231 230 219 211 336 172 171 166 165 158 157 161 177 191 195 205 202 202 203 204 208 204 199 195 194 197 199
235 234 224 220 220 213 208 209 208 207 208 210 212 212 213 212 209 208 208 208 209 208 206 204 201 199 195 192 193 197 210 216 216 228 207 196 199 199 200 203 203 208 206 205 207 200 205 201 143 74 20 303 283 220 250 272 254 211 237 233 184 208 229 213 201 183 152 164 164 158 154 167 172 166 189 196 191 181 184 191 197 200 197 196 197 198 200 202
233 234 225 219 221 213 208 207 205 205 206 208 210 212 213 213 210 209 209 209 209 208 207 205 206 205 199 197 195 201 218 215 219 240 199 185 185 187 194 196 195 199 201 206 209 205 203 198 177 117 55 310 304 291 258 260 256 226 234 202 169 187 199 199 200 184 138 150 161 157 143 170 175 165 195 194 178 166 171 177 186 192 194 195 198 199 199 202
232 233 226 220 223 218 207 204 203 203 204 206 208 211 213 212 210 209 210 211 210 210 210 209 211 211 207 202 196 200 217 212 215 209 179 178 179 178 183 185 186 187 190 196 204 205 200 197 190 156 77 324 321 308 304 284 247 249 234 190 166 179 182 192 197 185 154 138 160 153 117 159 173 172 204 198 186 175 176 173 177 187 192 194 197 198 198 202
232 232 226 220 224 222 208 202 203 202 202 204 204 209 211 210 209 209 209 211 212 211 211 212 212 212 210 204 199 202 209 203 200 189 171 174 181 180 175 169 173 173 181 182 190 202 195 190 191 175 153 327 333 313 299 300 287 249 209 170 160 160 167 188 171 176 169 148 164 138 100 140 154 191 220 197 190 191 187 178 177 184 190 193 195 196 198 202
231 231 226 220 220 221 211 202 201 201 201 201 201 207 209 209 209 207 208 210 211 212 210 210 210 211 208 205 208 210 209 201 191 182 170 173 182 185 177 163 156 150 166 171 157 189 189 182 183 174 169 311 327 316 293 307 310 250 193 170 206 131 170 202 172 177 170 169 175 127 79 273 219 219 224 195 191 196 193 184 181 187 191 193 193 195 199 203
229 228 224 219 216 220 215 203 199 201 200 199 200 203 207 209 209 206 206 207 209 209 208 207 207 210 205 200 211 214 215 205 192 179 168 172 177 180 178 164 156 162 182 186 151 138 178 183 175 169 180 306 310 301 303 308 303 251 190 165 174 82 267 212 181 178 162 166 182 146 159 253 244 228 223 199 191 191 189 187 185 188 192 193 195 197 200 204
226 226 221 216 213 216 214 202 199 200 199 199 199 200 205 208 209 210 209 208 207 206 204 205 203 204 202 198 209 212 215 205 193 181 166 164 168 173 177 170 170 190 207 200 170 116 177 186 168 162 184 250 287 299 306 303 290 234 188 171 163 178 245 225 181 168 155 188 188 155 202 250 259 244 228 204 192 188 186 187 186 188 192 196 200 203 206 208
224 224 219 214 211 214 211 199 198 200 197 198 199 200 202 205 206 208 210 210 207 203 199 200 200 197 197 207 213 208 210 201 192 185 170 160 167 172 176 175 180 192 198 184 165 157 188 182 162 161 192 240 271 297 295 284 296 236 205 218 194 180 240 284 196 177 166 186 183 156 202 257 271 271 229 199 191 189 189 190 191 191 191 195 201 206 211 213
222 221 218 214 209 213 214 204 201 200 197 198 199 201 203 205 202 199 204 206 200 196 192 191 194 193 189 208 212 201 201 197 189 185 177 169 171 175 178 181 185 187 182 170 160 163 177 168 155 168 206 251 262 281 270 272 278 247 206 202 204 178 208 306 230 206 187 140 177 194 190 245 274 280 195 190 191 193 194 194 196 198 198 197 202 208 212 214
219 217 216 213 209 209 212 213 208 199 197 198 197 198 199 200 198 193 192 191 186 180 182 184 186 188 196 212 205 197 198 197 189 187 190 188 181 183 188 185 182 183 170 160 156 149 161 165 154 174 216 244 249 240 252 255 225 245 214 196 222 178 175 198 268 232 184 150 190 207 203 231 269 255 176 185 193 197 198 198 200 203 205 205 206 210 213 215
218 216 215 212 211 207 206 213 212 201 197 197 195 195 193 188 186 181 172 168 166 164 171 176 173 179 216 211 201 198 199 196 187 190 201 196 186 191 192 183 179 179 163 151 154 149 156 171 169 182 214 214 234 223 224 229 197 201 187 210 238 182 181 187 219 211 172 169 192 174 219 250 264 248 198 195 195 201 203 202 204 206 209 211 212 214 217 220
216 216 214 211 212 207 203 207 211 204 195 193 191 183 178 171 165 165 162 159 158 158 169 172 171 174 234 201 196 198 198 192 185 193 204 192 181 189 191 183 178 172 159 152 162 160 161 168 172 197 209 200 224 210 222 239 201 178 186 192 193 185 216 205 228 220 170 161 195 183 206 235 244 242 220 212 204 209 214 211 210 209 212 214 216 218 220 224
215 215 212 211 210 204 201 202 207 203 191 186 177 163 157 154 146 151 160 165 170 169 174 178 177 163 62 179 185 187 187 187 191 195 198 188 176 179 185 181 173 167 161 156 169 170 168 172 182 199 208 207 220 204 224 249 249 264 219 199 197 179 212 237 260 255 162 151 206 202 208 231 239 241 237 223 210 217 224 223 220 213 212 214 216 220 222 226
213 213 209 209 205 200 199 198 200 199 190 183 172 159 154 152 146 165 160 167 181 172 156 183 178 155 40 175 179 178 167 169 189 191 188 184 173 171 180 177 166 172 174 156 157 167 169 187 193 188 208 215 219 208 220 247 257 271 267 228 225 185 194 254 255 245 154 146 228 217 216 248 248 240 244 223 200 218 222 219 222 218 215 214 215 219 222 227
209 209 206 205 198 194 195 192 192 192 187 180 171 163 163 160 156 168 159 152 183 174 101 186 182 191 272 180 180 177 162 151 180 186 183 181 177 173 173 172 166 181 181 159 155 162 175 199 179 178 202 213 221 210 217 243 243 248 269 223 228 206 179 310 329 269 98 142 257 244 207 247 256 246 246 217 201 221 223 219 221 220 217 215 215 218 221 224
206 205 203 201 194 189 189 188 189 188 182 176 172 168 170 171 173 168 158 122 171 178 186 179 184 194 171 167 176 171 161 159 177 185 185 180 183 182 169 167 177 175 179 173 163 163 181 197 176 178 193 206 225 211 211 240 242 240 244 194 244 204 156 234 281 269 53 131 175 109 203 260 268 263 259 231 223 228 228 225 226 224 222 222 221 221 223 223
203 201 199 197 192 188 186 184 184 182 179 176 174 174 174 170 171 166 149 87 151 183 193 178 182 183 163 165 174 168 164 171 176 182 188 183 183 184 172 168 174 175 182 179 169 169 172 180 180 181 188 198 215 215 208 223 244 253 212 195 248 201 174 175 158 138 20 0 133 94 5 299 255 244 253 238 230 230 228 223 225 227 227 230 229 227 227 227
199 197 195 191 190 190 185 179 178 178 176 174 170 172 173 154 148 162 144 67 143 183 199 180 178 178 164 164 173 171 165 171 178 182 187 187 182 175 172 174 174 180 183 174 166 173 183 181 182 181 182 191 204 220 205 195 228 260 221 205 207 193 176 122 122 107 62 308 251 122 52 293 270 242 242 237 233 231 222 214 217 223 225 228 229 229 229 230
194 193 190 187 187 188 184 176 177 175 171 173 172 171 172 154 151 165 150 55 173 176 181 176 176 176 164 159 166 167 160 176 186 187 187 191 186 171 165 177 180 180 174 169 168 182 193 176 178 179 177 183 198 222 209 178 196 246 243 205 174 147 134 140 146 128 129 220 274 115 163 260 309 279 245 229 228 240 226 215 219 221 223 225 228 231 231 231
190 188 185 184 183 183 181 175 175 174 172 177 178 176 175 157 155 164 143 37 197 162 159 172 175 171 166 162 160 158 160 176 184 195 192 191 189 181 175 176 174 178 169 157 184 199 137 155 178 179 175 180 190 211 216 168 166 231 246 160 140 135 146 164 159 147 181 192 345 22 143 211 291 268 256 211 207 246 243 234 233 225 226 228 230 233 233 233
186 185 183 181 181 182 182 176 173 176 178 176 172 175 172 157 153 152 124 202 172 141 151 167 166 165 166 167 167 160 148 156 162 202 196 191 191 190 192 186 168 169 175 166 186 218 141 170 186 174 174 188 183 195 197 166 167 235 231 153 151 152 154 159 146 136 95 116 302 302 146 173 268 270 291 237 194 247 247 234 232 226 227 230 233 235 235 235
184 184 183 182 181 182 183 180 176 177 177 170 167 170 163 153 146 130 116 206 138 126 157 152 155 163 161 167 177 173 147 155 157 184 187 190 195 197 191 189 171 143 174 172 172 208 189 186 189 173 177 187 176 186 184 171 187 216 180 104 98 91 105 119 127 120 67 90 238 250 190 178 271 276 290 328 206 237 241 240 233 226 227 229 233 236 236 234
183 184 184 182 179 178 179 178 177 176 173 168 166 164 157 151 144 134 226 193 126 148 158 150 160 167 158 159 185 182 153 156 134 155 174 186 191 197 174 177 168 115 71 49 133 212 294 171 180 165 175 174 157 145 165 177 169 136 104 71 55 33 44 58 70 97 89 263 248 241 207 172 266 279 236 209 225 212 215 244 247 236 232 230 232 235 236 234
182 182 182 181 177 177 175 169 171 174 171 169 164 156 154 151 150 193 188 149 125 148 149 149 161 164 163 164 177 176 154 124 136 147 167 182 182 193 170 169 166 122 99 65 86 336 10 90 155 78 96 135 128 98 35 159 147 119 103 105 83 9 16 23 359 59 142 247 265 271 230 167 214 265 243 245 264 231 205 220 236 242 241 239 237 238 238 238
178 176 176 177 175 176 174 165 166 170 168 165 159 152 150 149 204 216 165 146 148 169 161 159 165 165 171 173 171 168 145 133 159 157 163 172 178 191 185 180 172 157 168 166 140 20 21 4 266 18 340 160 132 116 48 50 127 123 124 128 123 58 33 28 275 247 216 241 267 295 280 198 228 253 259 271 281 265 225 216 232 241 240 240 235 232 232 230
173 172 172 174 173 173 171 164 162 163 160 158 153 149 151 179 193 193 168 169 171 171 167 163 167 166 168 173 170 159 142 145 169 164 161 164 169 193 214 220 182 163 171 169 136 117 28 308 300 59 291 218 166 150 144 122 133 142 146 145 149 130 101 200 245 269 253 255 271 287 281 253 267 267 249 246 253 254 245 241 256 251 238 233 222 215 216 218
171 171 171 172 171 171 168 162 161 159 155 153 148 148 176 191 188 182 179 187 159 153 158 154 154 157 165 173 169 160 147 145 165 157 154 158 166 197 219 219 195 145 119 153 160 163 172 250 230 173 165 190 184 179 160 147 152 178 170 146 156 163 150 188 208 194 222 260 281 289 270 198 200 255 244 237 253 262 262 260 256 245 237 230 219 215 217 223
172 171 169 167 166 166 164 160 160 158 154 151 146 155 181 183 187 179 175 171 145 142 144 144 144 150 167 171 165 170 156 136 167 156 159 174 180 191 197 203 197 151 135 166 182 164 159 200 271 294 22 158 176 215 144 135 157 203 155 128 171 186 148 144 183 178 169 168 267 249 237 209 208 273 275 257 260 269 265 252 233 221 220 216 218 222 223 228
169 164 163 161 158 160 163 162 161 161 156 149 148 179 184 195 189 174 170 159 153 145 137 142 148 150 163 156 163 180 163 131 164 162 177 189 190 195 195 195 191 175 164 164 158 156 153 189 321 347 0 42 155 229 200 142 173 171 128 169 205 162 117 119 190 156 114 154 243 207 238 286 302 294 290 271 251 273 277 254 231 220 216 214 222 228 231 235
160 154 152 153 155 158 163 164 162 162 158 149 166 191 194 212 184 156 151 137 139 142 138 145 162 160 163 161 172 180 161 140 167 172 176 181 198 202 197 202 194 186 178 158 154 188 147 124 324 20 157 297 349 336 348 49 134 138 161 190 181 93 92 117 154 17 82 202 263 204 207 268 286 263 307 308 252 261 265 252 247 238 229 227 231 235 237 238
150 145 145 151 156 158 161 164 163 160 157 154 188 195 196 221 191 131 127 127 137 146 145 153 167 172 174 169 173 175 164 162 178 178 169 176 216 197 185 199 197 186 183 159 150 185 134 118 313 345 193 266 352 57 119 358 18 155 182 174 133 138 199 143 154 189 174 214 272 278 227 234 202 217 298 302 237 244 248 244 254 252 239 235 240 244 241 237
143 136 139 151 154 156 159 163 162 158 154 173 195 196 186 205 229 145 140 139 147 152 154 162 160 169 183 169 161 169 170 173 173 171 175 183 227 199 179 185 186 182 184 165 156 186 138 125 225 289 278 253 4 111 177 210 345 19 63 129 100 148 178 177 168 163 164 208 247 284 264 247 226 213 228 243 238 240 237 229 234 243 243 245 249 252 244 236
141 130 138 152 154 158 161 161 158 157 169 192 190 187 173 184 206 155 150 148 153 158 160 166 158 158 171 162 156 166 172 168 166 177 196 177 195 210 183 178 171 175 175 155 145 163 128 118 164 270 331 165 193 215 185 178 168 129 148 179 206 86 125 166 187 144 138 176 210 237 253 260 250 210 201 225 237 234 222 210 222 238 243 249 256 259 251 242
142 128 143 153 157 161 159 156 158 170 192 193 187 178 166 166 140 155 156 153 154 163 150 158 162 158 156 157 161 167 164 154 168 182 191 174 179 214 192 178 160 161 164 145 148 160 129 116 136 150 188 190 229 254 201 191 186 172 177 185 186 162 128 168 219 212 136 171 181 184 242 263 254 212 202 219 231 231 218 204 211 225 231 240 251 256 260 257
143 127 149 155 162 161 157 157 177 181 191 183 178 167 157 144 137 163 162 154 154 141 134 151 161 154 155 161 161 164 162 160 178 183 180 183 182 185 186 171 157 159 165 160 168 151 108 102 112 138 195 211 260 271 228 238 270 216 217 196 182 178 149 168 206 207 154 211 161 149 246 261 250 221 208 218 225 221 214 206 206 210 213 232 244 249 259 259
129 121 148 158 164 163 160 164 174 174 197 165 164 193 168 145 149 163 163 158 160 146 142 157 163 161 167 165 157 163 165 165 184 183 157 157 183 194 176 164 157 161 165 166 178 148 105 95 100 82 321 300 308 313 309 319 31 248 250 189 165 205 152 149 188 169 166 208 166 165 251 259 265 255 213 214 228 214 214 214 216 221 221 236 249 253 254 245
117 122 143 158 166 168 169 173 171 176 181 165 172 197 178 149 154 161 165 168 163 148 152 163 166 165 165 159 160 167 168 167 187 187 148 141 186 202 173 165 162 166 177 181 180 170 140 117 121 110 65 355 343 326 294 242 181 241 251 166 162 184 115 111 132 113 180 217 163 179 245 251 256 258 181 202 282 267 249 239 238 257 262 257 257 255 246 234
120 123 138 156 167 176 189 193 166 167 162 168 174 173 158 152 170 166 163 164 152 136 143 151 150 132 118 140 148 163 170 161 160 176 156 138 167 240 176 173 170 173 185 178 168 161 152 160 155 139 154 187 200 215 216 181 162 236 216 176 181 178 162 153 110 123 221 221 149 196 239 224 188 171 68 299 287 292 277 266 257 264 266 260 253 248 240 234
136 134 127 150 172 189 213 305 153 157 164 174 175 177 160 142 157 162 155 159 157 129 122 135 138 114 122 145 138 161 178 135 95 164 157 147 166 332 186 178 175 174 174 167 161 152 125 181 186 182 190 192 185 180 148 131 152 203 199 178 183 186 174 150 123 178 201 146 171 226 235 219 192 164 80 256 250 253 265 263 253 251 254 253 247 241 238 234
153 162 152 151 171 194 221 260 184 173 177 176 169 176 164 148 149 153 149 173 168 138 113 122 148 143 156 158 148 167 177 120 102 156 146 143 167 24 141 160 161 163 161 161 160 147 104 206 202 204 205 177 135 153 151 145 172 197 187 177 185 180 165 163 198 209 150 126 230 234 235 238 219 181 200 222 231 236 241 247 247 243 247 251 244 236 236 232
163 174 176 168 160 181 196 202 196 183 179 177 162 152 156 150 158 163 158 174 160 146 115 131 169 169 164 160 152 159 166 144 143 159 142 140 142 94 92 71 50 127 144 154 160 139 139 201 203 200 199 139 125 162 158 157 181 188 176 183 186 175 173 184 210 215 164 189 238 231 223 245 224 186 211 213 203 220 231 239 246 247 250 253 241 233 236 235
148 153 176 178 170 170 164 164 176 176 176 177 160 158 163 160 164 168 139 132 157 170 144 152 177 173 160 160 153 151 166 169 167 166 139 136 140 116 98 90 59 68 96 132 156 119 158 196 184 166 177 181 179 179 164 159 169 175 181 187 179 178 191 195 208 214 198 214 240 232 237 255 237 194 214 215 209 222 234 242 249 250 248 244 234 229 235 243
140 137 170 176 165 133 127 116 146 168 177 176 172 178 171 165 167 166 146 154 163 185 168 161 171 167 157 161 156 165 184 176 161 162 142 128 141 142 135 159 155 74 81 127 144 51 161 197 153 138 157 233 221 196 171 157 161 175 189 191 182 187 202 208 213 215 204 224 244 241 253 263 247 181 207 220 214 220 234 239 237 238 239 236 229 226 237 250
141 135 164 161 125 145 148 140 156 168 181 184 184 187 178 177 172 160 152 171 164 167 170 159 155 147 147 160 164 178 183 164 152 161 158 155 167 172 166 171 161 139 129 160 157 115 145 188 114 120 152 238 225 182 153 122 126 167 201 202 196 194 203 211 214 205 195 219 236 237 246 256 234 147 194 208 194 196 213 225 231 235 233 231 227 228 239 250
122 110 151 152 102 146 158 154 163 172 186 190 187 180 175 179 171 155 145 168 164 163 163 154 147 142 151 173 184 179 165 155 162 167 164 164 166 163 157 162 162 158 158 163 161 153 153 158 155 147 171 238 231 162 134 98 98 225 229 206 197 200 205 209 217 213 207 210 215 223 235 236 178 157 198 179 161 188 209 219 228 235 233 230 230 234 243 247